Location: Ferchesar
(52.6477°N, 12.4298°E)
Time: 06:00:55
(UTC+02:00)

Transit 4A - Pass Details

Date: 27 February 2021
Orbit: 869 x 976 km, 66.8° (Epoch: 12 April)

Event Time Altitude Azimuth Distance (km) Brightness Sun altitude
Rises 15:08:48 0° 283° (WNW) 3,652 11.4 19.7°
Reaches altitude 10° 15:11:59 10° 298° (WNW) 2,693 10.6 19.4°
Maximum altitude 15:16:52 23° 349° (N) 1,896 9.4 18.9°
Drops below altitude 10° 15:21:40 10° 41° (NE) 2,639 9.7 18.4°
Sets 15:24:45 0° 56° (NE) 3,563 10.3 18.0°
